Flag for Canada Weather past 2 weeks in Cranbrook, British Columbia, Canada

Now
41 °F

Scattered clouds.


Feels Like: 35 °F
Forecast: 33 / 47 °F
Wind: 9 mph from Southwest

Location: Cranbrook

Current Time: Apr 1, 2015 at 10:55:51 AM

Latest Report: Apr 1, 2015 at 10:00 AM


Visibility: 25 mi

Pressure: 29.98 "Hg

Humidity: 39%

Dew point: 18 °F

Location of CranbrookLocation

Historic Weather in Cranbrook — Graph

°F

Cranbrook temperature yesterday

Maximum temperature yesterday: 59 °F (at 3:00 PM)
Minimum temperature yesterday: 30 °F (at 7:00 AM)
Average temperature yesterday: 43 °F

Past Weeks' High & Low Weather Summary

 TemperatureHumidityPressure
High70 °F (Mar 27, 5:00 PM)100% (Mar 18, 6:00 AM)30.32 "Hg (Mar 18, 6:00 AM)
Low25 °F (Mar 25, 7:00 AM)29% (Mar 27, 5:00 PM)29.64 "Hg (Mar 31, 3:00 PM)
Average43 °F70%30.05 "Hg
* Reported Mar 17 9:00 AM — Apr 1 9:00 AM, Cranbrook, Weather by CustomWeather, © 2015

Note: Actual official high and low records may vary slightly from our data, if they occured in-between our weather recording intervals... More about our weather records

Advertising

Cranbrook weather history for previous 24 hours

 ConditionsComfort  
Time TempWeatherWind HumidityBarometerVisibility
9:00 AM
Wed, Apr 1
39 °FPartly cloudy.10 mph42%29.98 "Hg25 mi
8:00 AM32 °FPartly cloudy.7 mph60%29.98 "Hg25 mi
7:00 AM34 °FPassing clouds.5 mph51%29.96 "Hg25 mi
6:00 AM36 °FPassing clouds.7 mph56%29.94 "Hg20 mi
5:00 AM37 °FPassing clouds.8 mph52%29.92 "Hg20 mi
4:00 AM37 °FPartly cloudy.9 mph48%29.87 "Hg20 mi
3:00 AM39 °FPartly cloudy.8 mph48%29.85 "Hg20 mi
2:00 AM36 °FPartly cloudy.5 mph70%29.85 "Hg20 mi
1:00 AM37 °FPartly cloudy.5 mph65%29.84 "Hg20 mi
12:00 AM37 °FPassing clouds.8 mph65%29.82 "Hg25 mi
11:00 PM
Tue, Mar 31
39 °FPassing clouds.No wind61%29.83 "Hg25 mi
10:00 PM39 °FPartly sunny.7 mph65%29.82 "Hg25 mi
9:10 PM41 °FBroken clouds.9 mph61%29.82 "Hg25 mi
8:00 PM41 °FBroken clouds.7 mph61%29.80 "Hg25 mi
7:00 PM43 °FBroken clouds.17 mph57%29.78 "Hg25 mi
6:00 PM45 °FPartly sunny.10 mph66%29.76 "Hg25 mi
5:00 PM43 °FPartly sunny.9 mph76%29.77 "Hg15 mi
4:00 PM57 °FScattered showers. Broken clouds.16 mph29%29.65 "Hg25 mi
3:00 PM59 °FScattered clouds.22 mph29%29.64 "Hg25 mi
2:00 PM57 °FScattered clouds.12 mph39%29.66 "Hg25 mi
1:00 PM57 °FBroken clouds.21 mph41%29.68 "Hg25 mi
12:00 PM55 °FBroken clouds.3 mph44%29.68 "Hg25 mi
11:00 AM46 °FPartly sunny.6 mph62%29.72 "Hg25 mi
10:00 AM43 °FPassing clouds.3 mph71%29.72 "Hg25 mi
Weather by CustomWeather, © 2015

See weather overviewHow to use our weather pages